STARLINK-35597

Last updated on Tue Dec 16 2025 00:02:05 GMT+0000 (Coordinated Universal Time)

1 66493U 25263J 25349.33335648 -.02035478 00000+0 -48184-1 0 9990 2 66493 42.9996 109.9991 0001703 264.7027 114.8488 15.44505661 6058

Satellite not in orbit